This demonstration page uses our WeatherBlox Daily Observations layout. Learn more.

Left ArrowRight Arrow

Hourly Observations for August 29, 2021

Temp ( °F °C ) Dew Point ( °F °C ) Humidity (%) Winds ( mph kmh ) Pressure ( in mb ) Visibility ( mi km ) Precip ( " mm )
12:15 am 00:15 Clear 70 21.1 69 20.6 97 97 Calm 30.11 1020 10 16 0.00 0.00
12:35 am 00:35 Clear 70 20.9 68 20.2 96 96 Calm 30.11 1020 10 16 0.00 0.00
12:55 am 00:55 Clear 70 21 69 20.4 96 96 Calm 30.11 1020 10 16 0.00 0.00
1:15 am 01:15 Clear 69 20.5 68 20 97 97 Calm 30.10 1019 10 16 0.00 0.00
1:35 am 01:35 Clear 69 20.5 68 20 97 97 Calm 30.10 1019 10 16 0.00 0.00
1:55 am 01:55 Clear 69 20.6 68 20.1 97 97 SSE 3 6 30.10 1019 10 16 0.00 0.00
2:15 am 02:15 Clear 70 21.2 69 20.4 95 95 S 6 9 30.09 1019 10 16 0.00 0.00
2:35 am 02:35 Clear 73 22.5 69 20.7 90 90 S 3 6 30.09 1019 10 16 0.00 0.00
2:55 am 02:55 Clear 72 22 69 20.6 92 92 Calm 30.09 1019 10 16 0.00 0.00
3:15 am 03:15 Clear 72 22 69 20.5 91 91 S 3 6 30.09 1019 10 16 0.00 0.00
3:35 am 03:35 Clear 71 21.6 69 20.4 93 93 Calm 30.10 1019 10 16 0.00 0.00
3:55 am 03:55 Clear 70 20.9 68 20.2 96 96 Calm 30.10 1019 10 16 0.00 0.00
4:15 am 04:15 Clear 70 20.9 68 20 95 95 Calm 30.10 1019 10 16 0.00 0.00
4:35 am 04:35 Clear 69 20.3 67 19.6 96 96 Calm 30.12 1020 10 16 0.00 0.00
4:55 am 04:55 Clear 68 20 67 19.5 97 97 Calm 30.12 1020 10 16 0.00 0.00
5:15 am 05:15 Clear 69 20.6 68 20.1 97 97 SSW 3 6 30.11 1020 10 16 0.00 0.00
5:35 am 05:35 Clear 69 20.4 68 19.8 96 96 Calm 30.11 1020 10 16 0.00 0.00
5:55 am 05:55 Clear 68 20.1 67 19.7 98 98 Calm 30.12 1020 10 16 0.00 0.00
6:15 am 06:15 Clear 69 20.3 68 20 98 98 Calm 30.12 1020 10 16 0.00 0.00
6:35 am 06:35 Clear 71 21.4 69 20.5 95 95 SSW 3 6 30.11 1020 10 16 0.00 0.00
6:55 am 06:55 Clear 71 21.6 69 20.5 93 93 Calm 30.11 1020 10 16 0.00 0.00
7:15 am 07:15 Sunny 70 21.2 69 20.5 96 96 Calm 30.11 1020 10 16 0.00 0.00
7:35 am 07:35 Sunny 72 22 69 20.5 91 91 SSW 3 6 30.11 1020 10 16 0.00 0.00
7:55 am 07:55 Sunny 72 22.1 69 20.7 92 92 Calm 30.11 1020 10 16 0.00 0.00
8:15 am 08:15 Partly Cloudy 72 22.1 69 20.7 92 92 SSW 3 6 30.11 1020 10 16 0.00 0.00
8:35 am 08:35 Sunny 72 22.2 70 20.9 92 92 SSW 3 6 30.12 1020 10 16 0.00 0.00
8:55 am 08:55 Sunny 74 23.3 70 21 87 87 SSW 6 9 30.12 1020 10 16 0.00 0.00
9:15 am 09:15 Sunny 75 24.1 70 21.3 84 84 SSW 7 11 30.11 1020 10 16 0.00 0.00
9:35 am 09:35 Sunny 77 25.1 71 21.7 81 81 SW 6 9 30.11 1020 10 16 0.00 0.00
9:55 am 09:55 Sunny 78 25.7 72 22 80 80 SW 8 13 30.10 1019 10 16 0.00 0.00
10:15 am 10:15 Sunny 80 26.9 72 22.3 76 76 SSW 6 9 30.09 1019 10 16 0.00 0.00
10:35 am 10:35 Sunny 80 26.7 72 22.3 77 77 SSW 6 9 30.09 1019 10 16 0.00 0.00
10:55 am 10:55 Sunny 82 27.7 73 22.5 73 73 SW 7 11 30.09 1019 10 16 0.00 0.00
11:15 am 11:15 Sunny 83 28.3 73 22.6 71 71 WSW 5 7 30.09 1019 10 16 0.00 0.00
11:35 am 11:35 Sunny 84 28.9 73 22.7 69 69 WSW 8 13 30.09 1019 10 16 0.00 0.00
11:55 am 11:55 Partly Cloudy 85 29.6 73 22.7 66 66 SW 8 13 30.09 1019 10 16 0.00 0.00
12:15 pm 12:15 Mostly Cloudy 86 30 73 22.8 65 65 SW 10 17 30.07 1018 10 16 0.00 0.00
12:35 pm 12:35 Mostly Cloudy 85 29.6 72 22.2 64 64 SW 8 13 30.08 1018 10 16 0.00 0.00
12:55 pm 12:55 Mostly Cloudy 86 29.9 72 22.4 64 64 SW 10 17 30.05 1018 10 16 0.00 0.00
1:15 pm 13:15 Mostly Cloudy 87 30.8 72 22.3 61 61 SW 10 17 30.05 1018 10 16 0.00 0.00
1:35 pm 13:35 Partly Cloudy 87 30.4 72 22.1 61 61 SSW 13 20 30.04 1017 10 16 0.00 0.00
1:55 pm 13:55 Partly Cloudy 85 29.2 72 22.4 67 67 SSW 7 11 30.04 1017 10 16 0.00 0.00
2:15 pm 14:15 Partly Cloudy 85 29.5 72 22.1 64 64 WSW 9 15 30.03 1017 10 16 0.00 0.00
2:35 pm 14:35 Partly Cloudy 87 30.6 70 21 57 57 SW 12 19 30.01 1016 10 16 0.00 0.00
2:55 pm 14:55 Partly Cloudy 90 32 71 21.8 55 55 SSW 10 17 30.00 1016 10 16 0.00 0.00
3:15 pm 15:15 Partly Cloudy 90 32.2 68 20.1 49 49 SW 16 26 29.99 1015 10 16 0.00 0.00
3:35 pm 15:35 Partly Cloudy 89 31.8 70 20.9 52 52 SW 10 17 29.97 1015 10 16 0.00 0.00
3:55 pm 15:55 Partly Cloudy 89 31.9 70 21.2 53 53 SW 16 26 29.97 1015 10 16 0.00 0.00
4:15 pm 16:15 Mostly Cloudy 90 32.4 70 21.2 52 52 SW 13 20 29.95 1014 10 16 0.00 0.00
4:35 pm 16:35 Partly Cloudy 89 31.6 69 20.3 51 51 SW 9 15 29.96 1015 10 16 0.00 0.00
4:55 pm 16:55 Partly Cloudy 89 31.4 69 20.6 53 53 WSW 15 24 29.95 1014 10 16 0.00 0.00
5:15 pm 17:15 Mostly Cloudy 89 31.6 69 20.5 52 52 SW 13 20 29.95 1014 10 16 0.00 0.00
5:35 pm 17:35 Mostly Cloudy 88 31 69 20.5 54 54 WSW 12 19 29.96 1015 10 16 0.00 0.00
5:55 pm 17:55 Mostly Cloudy 89 31.6 70 21 53 53 SW 8 13 29.95 1014 10 16 0.00 0.00
6:15 pm 18:15 Partly Cloudy 88 31 69 20.7 54 54 WSW 10 17 29.95 1014 10 16 0.00 0.00
6:35 pm 18:35 Partly Cloudy 87 30.7 69 20.6 55 55 WSW 12 19 29.95 1014 10 16 0.00 0.00
6:55 pm 18:55 Mostly Cloudy 87 30.6 70 20.9 56 56 WSW 12 19 29.96 1015 10 16 0.00 0.00
7:15 pm 19:15 Mostly Cloudy 87 30.5 71 21.4 58 58 SW 8 13 29.95 1014 10 16 0.00 0.00
7:35 pm 19:35 Mostly Cloudy 85 29.6 70 21 60 60 SW 8 13 29.97 1015 10 16 0.00 0.00
7:55 pm 19:55 Partly Cloudy 84 28.9 70 21 62 62 SW 6 9 29.97 1015 10 16 0.00 0.00
8:15 pm 20:15 Sunny 82 27.5 70 21.1 68 68 SW 6 9 29.97 1015 10 16 0.00 0.00
8:35 pm 20:35 Clear 80 26.6 70 21.2 72 72 SW 6 9 29.98 1015 10 16 0.00 0.00
8:55 pm 20:55 Clear 79 26.1 70 21.2 74 74 SW 5 7 29.99 1015 10 16 0.00 0.00
9:15 pm 21:15 Partly Cloudy 78 25.6 71 21.5 78 78 SW 3 6 29.99 1016 10 16 0.00 0.00
9:35 pm 21:35 Mostly Cloudy with Thunderstorms 79 26.3 71 21.7 76 76 SSW 5 7 29.99 1015 10 16 0.00 0.00
9:55 pm 21:55 Cloudy with Thunderstorms 80 26.4 71 21.6 75 75 NW 9 15 30.00 1016 10 16 0.00 0.00
10:15 pm 22:15 Cloudy with Nearby Thunderstorms 78 25.6 70 21.2 77 77 SW 3 6 30.00 1016 10 16 0.00 0.00
10:35 pm 22:35 Partly Cloudy with Nearby Thunderstorms 76 24.7 71 21.7 83 83 Calm 30.00 1016 10 16 0.00 0.00
10:55 pm 22:55 Mostly Cloudy with Thunderstorms 77 24.9 72 22 84 84 Calm 30.00 1016 10 16 0.00 0.00
11:15 pm 23:15 Cloudy with Strong Thunderstorms 72 22.3 69 20.4 89 89 NW 10 17 30.03 1017 2 3 0.25 6.35
11:35 pm 23:35 Cloudy with Thunderstorms 72 22 69 20.6 92 92 S 3 6 30.03 1017 10 16 0.26 6.60
11:55 pm 23:55 Mostly Cloudy 72 22 70 21.1 95 95 SW 3 6 30.02 1017 10 16 0.26 6.60

Powered by AerisWeather